Regional Weather Roundup
Issued by NWS

Home | Current Version | Previous Version | Graphics & Text | Print | Product List | Glossary On
Versions: 1 2 3 4 5 6 7 8 9 10 11 12 13 14 15 16 17 18 19 20 21 22 23 24 25 26 27 28 29 30 31 32 33 34 35 36 37 38 39 40 41 42 43 44 45 46 47 48 49 50
000
ASUS43 KIND 310209
RWRIN

WEATHER ROUNDUP FOR INDIANA
NATIONAL WEATHER SERVICE INDIANAPOLIS IN
1000 PM EDT SUN AUG 30 2015

NOTE: "FAIR" INDICATES FEW OR NO CLOUDS BELOW 12,000 FEET WITH NO
SIGNIFICANT WEATHER AND/OR OBSTRUCTIONS TO VISIBILITY.

* - STATION DOES NOT REPORT WEATHER SUCH AS PRECIPITATION OR FOG.

+ - STATION NOT QUALITY CONTROLLED BY THE NATIONAL WEATHER SERVICE.
    USE DATA WITH CAUTION...ESPECIALLY DEWPOINT AND RELATIVE
    HUMIDITY OBSERVATIONS.

INZ001>003-010>013-019-020-310300-
NORTHWEST INDIANA

CITY           SKY/WX    TMP DP  RH WIND       PRES   REMARKS
GARY /AIRPORT/ CLEAR     70  64  83 CALM      30.05R
KNOX *+          N/A     64  64 100 N3        30.04R
LA PORTE +     CLEAR    N/A N/A N/A CALM      30.06R HAZE
MICHIGAN CITY+   N/A     63  63 100 CALM      30.06R FOG
MONTICELLO +   CLEAR     72  72 100 CALM      30.03R
RENSSELAER +   CLEAR     70  70 100 CALM      30.05R FOG
VALPARAISO     FAIR      67  65  93 NE3       30.06R

$$

LMZ046-743>745-310300-
SOUTHERN LAKE MICHIGAN

STATION/POSITION TIME  TEMP    WIND        PRES    WAVE
                       AIR SEA DIR/SP/G            HT
                 (UTC) (F)     (DEG/KT/KT) (MB)    (FT)
BURNS HARBOR     0100   69      60/  8/  9 1017.3R
MICHIGAN CITY    0100   69      30/  7/  8   N/A
5NW MICH CITY    0200   69 71   70/  6/  8   N/A     1

$$

INZ004-005-014>016-021>024-310300-
NORTH CENTRAL INDIANA

CITY           SKY/WX    TMP DP  RH WIND       PRES   REMARKS
GOSHEN         CLEAR     69  66  90 CALM      30.06R FOG
LOGANSPORT +   CLEAR     68  64  88 CALM      30.05S FOG
PERU/GRISSOM   CLEAR     74  69  84 CALM      30.04R
ROCHESTER +    CLEAR     72  72 100 CALM      30.05S FOG
SOUTH BEND     CLEAR     64  62  93 CALM      30.06R
WARSAW +       CLEAR     68  68 100 CALM      30.06R FOG

$$

INZ006>009-017-018-025>027-310300-
NORTHEAST INDIANA

CITY           SKY/WX    TMP DP  RH WIND       PRES   REMARKS
ANGOLA *+      CLEAR     70  63  78 CALM      30.06R
AUBURN +       CLEAR     72  68  88 CALM      30.06R FOG
FORT WAYNE     CLEAR     72  67  84 CALM      30.06R
HUNTINGTON +   CLEAR     71  65  82 CALM      30.05R

$$

INZ028-029-035-036-043>045-051>053-310300-
WEST CENTRAL INDIANA

CITY           SKY/WX    TMP DP  RH WIND       PRES   REMARKS
CRAWFORDSVL +  PTCLDY    67  65  94 CALM      30.06R
GREENCASTLE +  CLEAR     70  64  83 CALM      30.07R
LAFAYETTE      CLEAR     72  68  87 CALM      30.03R
TERRE HAUTE    CLEAR     72  67  84 CALM      30.05R

$$

INZ030>032-037>040-046>048-054>057-064-065-310300-
CENTRAL INDIANA

CITY           SKY/WX    TMP DP  RH WIND       PRES   REMARKS
FRANKFORT +    CLEAR    N/A N/A N/A S3        30.07R
GREENWOOD *+   PTCLDY    73  64  73 SW3       30.08R
INDIANAPOLIS   PTCLDY    74  66  76 S7        30.05R
-EAGLE CREEK   CLEAR     75  66  73 CALM      30.06R
KOKOMO *+      CLEAR     70  64  83 CALM      30.05R
MARION +       CLEAR     69  60  72 CALM      30.06R
MT COMFORT *+  CLEAR     73  66  78 S5        30.07S
SHELBYVILLE    MOCLDY    74  67  78 S3        30.06R
ZIONSVILLE +   CLEAR     68  64  87 CALM      30.07R

$$

INZ033-034-041-042-049-050-058-059-310300-
EAST CENTRAL INDIANA

CITY           SKY/WX    TMP DP  RH WIND       PRES   REMARKS
MUNCIE         CLEAR     70  65  84 CALM      30.07R

$$

INZ060-061-067>069-081>083-085>088-310300-
SOUTHWEST INDIANA

CITY           SKY/WX    TMP DP  RH WIND       PRES   REMARKS
EVANSVILLE     PTCLDY    76  70  82 S5        30.06R
HUNTINGBURG *+ PTCLDY    75  68  78 S3        30.07R
WASHINGTON +   FAIR      73  69  87 S5        30.05R

$$

INZ062-063-066-070>080-084-089>092-310300-
SOUTH CENTRAL AND SOUTHEAST INDIANA

CITY           SKY/WX    TMP DP  RH WIND       PRES   REMARKS
BLOOMINGTON    MOCLDY    71  68  90 S3        30.07R
MADISON *+     PTCLDY    72  68  88 S3        30.11R
NORTH VERNON + PTCLDY    73  73 100 CALM      30.09R
SEYMOUR +      CLOUDY    73  68  83 SW6       30.08R

$$




USA.gov is the U.S. government's official web portal to all federal, state and local government web resources and services.